This is the latest recevied weather packets stored in our database for station/object KC3WWU. If no packets are shown the sender has not sent any weather packets the latest 1 day(s).
| Time | Temp. | Humidity | Pressure | Rain* | Wind** | Luminosity | Snow |
|---|---|---|---|---|---|---|---|
| 1778008190 | 21.67° C | 52% | 1006.4 hPa | 0 mm | 2.68 m/s, 228° | 245 W/m² | - |
| 1778007884 | 21.67° C | 52% | 1006.9 hPa | 0 mm | 0.45 m/s, 325° | 184 W/m² | - |
| 1778007580 | 21.67° C | 52% | 1006.7 hPa | 0 mm | 0.89 m/s, 339° | 213 W/m² | - |
| 1778007278 | 22.22° C | 52% | 1006.8 hPa | 0 mm | 1.79 m/s, 271° | 236 W/m² | - |
| 1778006974 | 22.22° C | 51% | 1006.8 hPa | 0 mm | 2.68 m/s, 250° | 408 W/m² | - |
| 1778006671 | 22.22° C | 51% | 1006.8 hPa | 0 mm | 1.79 m/s, 333° | 329 W/m² | - |
| 1778006367 | 21.67° C | 51% | 1006.8 hPa | 0 mm | 1.79 m/s, 351° | 288 W/m² | - |
| 1778006065 | 21.67° C | 50% | 1006.8 hPa | 0 mm | 2.24 m/s, 39° | 256 W/m² | - |
| 1778005761 | 21.67° C | 51% | 1006.8 hPa | 0 mm | 3.58 m/s, 318° | 232 W/m² | - |
| 1778005458 | 21.67° C | 52% | 1006.7 hPa | 0 mm | 3.13 m/s, 304° | 225 W/m² | - |
| 1778005154 | 21.67° C | 50% | 1006.4 hPa | 0 mm | 2.24 m/s, 320° | 254 W/m² | - |
| 1778004852 | 21.11° C | 51% | 1006.8 hPa | 0 mm | 1.79 m/s, 283° | 232 W/m² | - |
| 1778004548 | 21.67° C | 51% | 1006.7 hPa | 0 mm | 4.02 m/s, 301° | 166 W/m² | - |
| 1778004245 | 21.67° C | 51% | 1006.7 hPa | 0 mm | 1.79 m/s, 193° | 182 W/m² | - |
| 1778003942 | 21.67° C | 51% | 1006.8 hPa | 0 mm | 2.24 m/s, 345° | 209 W/m² | - |
| 1778003638 | 21.67° C | 51% | 1006.4 hPa | 0 mm | 1.34 m/s, 321° | 315 W/m² | - |
| 1778003334 | 21.67° C | 50% | 1006.7 hPa | 0 mm | 2.68 m/s, 238° | 218 W/m² | - |
| 1778003032 | 21.67° C | 50% | 1006.4 hPa | 0 mm | 1.79 m/s, 293° | 238 W/m² | - |
| 1778002728 | 21.67° C | 51% | 1006.8 hPa | 0 mm | 1.79 m/s, 22° | 372 W/m² | - |
| 1778002424 | 21.67° C | 51% | 1006.8 hPa | 0 mm | 2.68 m/s, 355° | 180 W/m² | - |
| 1778002122 | 22.22° C | 49% | 1006.7 hPa | 0 mm | 4.02 m/s, 316° | 308 W/m² | - |
| 1778001819 | 21.67° C | 50% | 1006.7 hPa | 0 mm | 3.13 m/s, 283° | 519 W/m² | - |
| 1778001519 | 21.67° C | 52% | 1006.6 hPa | 0 mm | 1.34 m/s, 289° | 210 W/m² | - |
| 1778001216 | 21.67° C | 50% | 1006.6 hPa | 0 mm | 1.34 m/s, 336° | 175 W/m² | - |
| 1778000912 | 22.78° C | 48% | 1006.6 hPa | 0 mm | 1.79 m/s, 338° | 247 W/m² | - |
* Rain latest hour (hover to see other rain measurements)
** Current wind speed in m/s (hover to see current wind gust speed)